User: anonymous   Login
Location: State Camp
(41.2367°N, 77.7828°W)
Time: 11:56:23
(UTC-04:00)
Language:

ADEOS Rocket - Orbit

View from above orbital plane
View from above orbital plane
View from above satellite
View from above satellite

Ground track
Ground track

The orbit data is extracted from the following two-line orbital elements,

1 24279U 96046C   15117.72462266  .00000025  00000-0  73638-4 0  9997
2 24279 098.7024 150.5998 0301190 122.7026 013.3790 13.47023296919039
Epoch (UTC): 27 April 2015 17:23:27
Eccentricity: 0.0301190
inclination: 98.7024°
perigee height: 858 km
apogee height: 1308 km
right ascension of ascending node: 150.5998°
argument of perigee: 122.7026°
revolutions per day: 13.47023296
mean anomaly at epoch: 13.3790°
orbit number at epoch: 91903

The dashed part of the orbit path shows where the satellite is in the earth's shadow,  

DLR